EW8485 Weather Reports


Display with metric or nautical units.
time (UTC)temp
F
wind
direction
speed
MPH
gust
MPH
rain 1hr
in
rain 24hr
in
rain mn
in
humidity
%
barometer
mb
20260506211152 88 200 1.0 6.0 0.00 0.00 0.00 75 1004.3
20260506210650 89 70 1.0 5.0 0.00 0.00 0.00 75 1004.4
20260506210150 88 117 1.0 5.0 0.00 0.00 0.00 77 1004.4
20260506205642 87 130 1.0 3.0 0.00 0.00 0.00 78 1004.4
20260506205142 87 261 0.0 2.0 0.00 0.00 0.00 78 1004.5
20260506204641 87 151 1.0 5.0 0.00 0.00 0.00 78 1004.6
20260506204141 87 250 1.0 5.0 0.00 0.00 0.00 77 1004.6
20260506203641 88 271 0.0 2.0 0.00 0.00 0.00 75 1004.6
20260506203137 88 181 0.0 8.0 0.00 0.00 0.00 75 1004.7
20260506202636 88 241 1.0 8.0 0.00 0.00 0.00 76 1004.7
20260506202136 87 101 1.0 6.0 0.00 0.00 0.00 78 1004.7
20260506201632 87 263 1.0 10.0 0.00 0.00 0.00 78 1004.7
20260506201133 86 119 1.0 10.0 0.00 0.00 0.00 79 1004.8
20260506200903 86 242 0.0 2.0 0.00 0.00 0.00 79 1004.8
20260506200130 86 203 0.0 3.0 0.00 0.00 0.00 80 1005.0
20260506195630 86 255 0.0 3.0 0.00 0.00 0.00 79 1005.0
20260506195124 86 169 1.0 4.0 0.00 0.00 0.00 80 1005.1
20260506194621 86 268 1.0 4.0 0.00 0.00 0.00 80 1005.1
20260506194122 86 190 0.0 3.0 0.00 0.00 0.00 80 1005.1
20260506193622 85 93 1.0 8.0 0.00 0.00 0.00 82 1005.1
20260506193123 85 112 1.0 8.0 0.00 0.00 0.00 81 1005.2
20260506192622 85 86 1.0 5.0 0.00 0.00 0.00 81 1005.3
20260506192119 86 148 1.0 7.0 0.00 0.00 0.00 80 1005.3
20260506191619 86 193 1.0 7.0 0.00 0.00 0.00 79 1005.3
20260506191349 86 76 0.0 4.0 0.00 0.00 0.00 78 1005.3
20260506190617 86 169 1.0 4.0 0.00 0.00 0.00 79 1005.4
20260506190118 86 132 1.0 6.0 0.00 0.00 0.00 78 1005.4
20260506185618 86 107 1.0 6.0 0.00 0.00 0.00 78 1005.5
20260506185348 87 101 0.0 4.0 0.00 0.00 0.00 78 1005.6
20260506184611 87 212 0.0 4.0 0.00 0.00 0.00 79 1005.7
20260506184112 87 53 1.0 5.0 0.00 0.00 0.00 78 1005.7
20260506183612 87 115 1.0 5.0 0.00 0.00 0.00 78 1005.7
20260506183112 87 240 1.0 5.0 0.00 0.00 0.00 80 1005.7
20260506182611 86 84 0.0 3.0 0.00 0.00 0.00 79 1005.8
20260506182112 86 241 0.0 3.0 0.00 0.00 0.00 80 1005.9
20260506181614 85 257 1.0 3.0 0.00 0.00 0.00 81 1006.0
20260506181113 85 126 0.0 5.0 0.00 0.00 0.00 82 1006.2
20260506181107 85 112 1.0 5.0 0.00 0.00 0.00 81 1006.2
20260506180105 85 136 0.0 2.0 0.00 0.00 0.00 81 1006.4
20260506175606 84 134 0.0 2.0 0.00 0.00 0.00 82 1006.4
20260506175106 84 66 1.0 5.0 0.00 0.00 0.00 83 1006.5
20260506174839 84 104 1.0 5.0 0.00 0.00 0.00 82 1006.5
20260506174106 85 91 0.0 2.0 0.00 0.00 0.00 82 1006.5
20260506173601 84 245 0.0 2.0 0.00 0.00 0.00 84 1006.6
20260506173102 83 261 1.0 5.0 0.00 0.00 0.00 85 1006.6
20260506172601 82 111 2.0 6.0 0.00 0.00 0.00 85 1006.6
20260506172101 82 76 2.0 6.0 0.00 0.00 0.00 85 1006.8
20260506171602 83 149 1.0 5.0 0.00 0.00 0.00 85 1006.8
20260506171102 82 106 2.0 6.0 0.00 0.00 0.00 86 1006.8
20260506170822 82 131 2.0 6.0 0.00 0.00 0.00 86 1006.9
20260506170817 82 170 1.0 6.0 0.00 0.00 0.00 87 1006.9
20260506170812 81 148 1.0 4.0 0.00 0.00 0.00 88 1006.9
20260506170746 82 172 2.0 6.0 0.00 0.00 0.00 86 1006.8
20260506170449 82 124 1.0 6.0 0.00 0.00 0.00 86 1006.9
20260506164557 81 148 1.0 4.0 0.00 0.00 0.00 88 1006.9
20260506164054 81 73 1.0 6.0 0.00 0.00 0.00 89 1006.8
20260506163554 81 100 1.0 6.0 0.00 0.00 0.00 89 1006.8
20260506163048 80 120 1.0 5.0 0.00 0.00 0.00 89 1006.7
20260506162546 81 99 0.0 3.0 0.00 0.00 0.00 89 1006.7
20260506162046 81 102 0.0 2.0 0.00 0.00 0.00 89 1006.7
20260506161542 81 102 0.0 2.0 0.00 0.00 0.00 89 1006.6
20260506161044 80 127 0.0 2.0 0.00 0.00 0.00 90 1006.6
20260506160535 80 142 0.0 3.0 0.00 0.00 0.00 91 1006.5
20260506160038 80 84 1.0 4.0 0.00 0.00 0.00 92 1006.5
20260506155536 79 94 1.0 4.0 0.00 0.00 0.00 91 1006.5
20260506155039 79 73 1.0 3.0 0.00 0.00 0.00 92 1006.5
20260506154536 79 89 1.0 3.0 0.00 0.00 0.00 92 1006.5
20260506154039 79 102 1.0 4.0 0.00 0.00 0.00 92 1006.5
20260506153530 78 120 1.0 4.0 0.00 0.00 0.00 92 1006.5
20260506153040 79 95 1.0 4.0 0.00 0.00 0.00 92 1006.2
20260506153032 79 93 1.0 4.0 0.00 0.00 0.00 92 1006.3
20260506152035 79 148 1.0 4.0 0.00 0.00 0.00 92 1006.1
20260506151530 79 119 1.0 3.0 0.00 0.00 0.00 92 1006.1
20260506151050 79 105 1.0 3.0 0.00 0.00 0.00 92 1006.2
20260506150528 79 84 1.0 4.0 0.00 0.00 0.00 91 1006.1
20260506150030 79 73 1.0 4.0 0.00 0.00 0.00 91 1006.0
20260506145523 79 76 1.0 4.0 0.00 0.00 0.00 91 1005.9
20260506145316 79 150 1.0 4.0 0.00 0.00 0.00 91 1005.7
20260506144524 79 98 1.0 6.0 0.00 0.00 0.00 91 1005.6
20260506144028 79 119 1.0 6.0 0.00 0.00 0.00 91 1005.5
20260506143537 79 84 1.0 5.0 0.00 0.00 0.00 91 1005.4
20260506143521 79 167 1.0 6.0 0.00 0.00 0.00 91 1005.4
20260506142519 79 133 1.0 5.0 0.00 0.00 0.00 91 1005.4
20260506142032 79 119 1.0 4.0 0.00 0.00 0.00 91 1005.5
20260506141750 78 88 1.0 4.0 0.00 0.00 0.00 92 1005.5
20260506141302 78 78 1.0 4.0 0.00 0.00 0.00 92 1005.5
20260506140511 78 117 1.0 6.0 0.00 0.00 0.00 92 1005.7
20260506140018 78 89 1.0 6.0 0.00 0.00 0.00 92 1005.7
20260506135511 78 141 1.0 3.0 0.00 0.00 0.00 93 1005.7
20260506135250 78 114 1.0 0.0 0.00 0.00 0.00 94 1005.7